Hourly Data Report for June 25, 2019

TORONTO CITY
ONTARIO
Current Station Operator: ECCC - MSC

43°40'00.000" N
79°24'00.000" W
112.50 m
6158355
71508
XTO

Download Data

Hourly Data (June 2019)
Hourly Data Report for June 25, 2019
TIME
LST
Temp Definition
°C
Dew Point Definition
°C
Rel Hum Definition
%
Precip. Amount Definition
mm

Wind Dir Definition
10's deg

Wind Spd Definition
km/h
Visibility Definition
km
Stn Press Definition
kPa
Hmdx Definition


Wind Chill Definition


Weather Definition


00:00 18.0 16.1 88 3.6       98.99     LegendNANA
01:00 18.1 16.5 90 14.5       99.03     LegendNANA
02:00 18.1 16.5 90 0.3       99.04     LegendNANA
03:00 17.8 16.2 90 0.0       99.04     LegendNANA
04:00 17.6 15.9 90 0.0       99.10     LegendNANA
05:00 17.4 15.9 91 0.0       99.19     LegendNANA
06:00 18.3 16.9 91 0.0       99.24     LegendNANA
07:00 19.3 17.6 90 0.0       99.28     LegendNANA
08:00 21.2 16.8 76 0.0       99.35 26   LegendNANA
09:00 22.8 14.3 59 0.0       99.39 26   LegendNANA
10:00 23.6 13.6 54 0.0       99.46 27   LegendNANA
11:00 24.3 13.8 52 0.0       99.50 28   LegendNANA
12:00 25.0 13.9 50 0.0       99.56 28   LegendNANA
13:00 23.9 13.9 54 0.0       99.66 27   LegendNANA
14:00 24.0 14.0 54 0.0       99.71 27   LegendNANA
15:00 25.2 13.2 47 0.0       99.71 28   LegendNANA
16:00 25.5 12.9 46 0.0       99.71 28   LegendNANA
17:00 25.7 12.1 43 0.0       99.72 28   LegendNANA
18:00 25.3 11.9 43 0.0       99.72 28   LegendNANA
19:00 25.0 11.4 42 0.0       99.77 27   LegendNANA
20:00 23.5 11.9 48 0.0       99.78 26   LegendNANA
21:00 21.9 11.5 52 0.0       99.84     LegendNANA
22:00 20.6 14.2 67 0.0       99.91     LegendNANA
23:00 19.6 14.8 74 0.0       99.94     LegendNANA

Notes on Data Quality.

Legend

  • E = Estimated
  • M = Missing
  • NA = Not Available*
  • [empty] = Indicates an unobserved value
Date modified: